Location: Franzen
(48.6167°N, 15.3833°E)
Time: 10:29:00
(UTC+00:00)

SPOT 5 - Pass Details

Date: 22 April 2021
Orbit: 624 x 814 km, 98.2° (Epoch: 16 May)

Event Time Altitude Azimuth Distance (km) Brightness Sun altitude
Exits shadow 21:14:07 35° 237° (WSW) 1,099 3.7 -24.8°
Maximum altitude 21:14:59 39° 263° (W) 1,041 3.8 -24.9°
Drops below altitude 10° 21:19:31 10° 332° (NNW) 2,215 6.4 -25.2°
Sets 21:22:01 0° 340° (NNW) 3,174 7.6 -25.4°
